Content
SEND FEEDBACK

Daily
Averages
Monthly
Summary
United States of America

ROCKY POINT, OREGON


Home > North America > United States > Oregon
Elevation: 4150 feet     Latitude: 42 26N     Longitude: 122 05W

WEATHER
 
SELECT A DAY
Number of Records: 201,797;   Date Range: 1/1/95 - 8/30/14
 
SHARE

PRINT THIS DATA

[ ← Previous Day ]
WEATHER ALMANAC - JANUARY 23, 2013
[ Next Day → ]
[ °C ]   °F
Weather ElementAverageHighLow
Temperature40.3 °F45 °F (12:53 pm)35.1 °F (11:53 pm)
Dewpoint26.1 °F35.1 °F (8:53 pm)18 °F (4:53 am)
Humidity59.9 %100 % (11:53 pm)38 % (4:53 am)
Barometer30.02 in30.12 in (11:53 pm)29.96 in (12:53 pm)
Wind Speed10.9 mph20.7 mph (12:53 pm)
Wind Gust31.1 mph (12:53 pm)
Weather ElementAverage
Visibility9.7 mi
Wind DirectionSSE (168.3 °)

Weather ElementTotal
Precipitation0.08 in
Heating Degree Days25 (Base 65)
Averaged from 24 records on January 23, 2013
WEATHER CONDITIONS BREAKOUT
WIND DIRECTION BREAKOUT
WEATHER BY HOUR - JANUARY 23, 2013
[ °C ]   °F
Local TimeTemperatureDewpointHumidityBarometerVisibilityWind DirectionWind SpeedGust SpeedPrecipitationEventsConditions
1:53 AM39.9 °F21.0 °F47 %30.04 in10.0 miSSE (160°)13.8 mphClear
2:53 AM39.0 °F21.9 °F50 %30.04 in10.0 miSSE (150°)3.5 mphPartly Cloudy
3:53 AM41.0 °F19.9 °F43 %30.02 in10.0 miSE (130°)10.4 mphOvercast
4:53 AM42.1 °F18.0 °F38 %30.01 in10.0 miEast (80°)3.5 mphMostly Cloudy
5:53 AM42.1 °F19.0 °F40 %30.01 in10.0 miSSE (150°)10.4 mphOvercast
6:01 AM41.0 °F19.4 °F42 %29.98 in7.0 miSSE (150°)5.8 mphOvercast
6:53 AM39.9 °F21.0 °F47 %30.00 in7.0 miSSE (160°)11.5 mphOvercast
7:53 AM39.9 °F21.0 °F47 %30.00 in10.0 miSSE (160°)17.3 mphMostly Cloudy
8:53 AM41.0 °F24.1 °F51 %30.01 in10.0 miSouth (180°)16.1 mphMostly Cloudy
9:53 AM42.1 °F24.1 °F49 %30.02 in10.0 miSE (140°)4.6 mphOvercast
10:53 AM44.1 °F23.0 °F43 %30.01 in10.0 miSSE (160°)4.6 mphMostly Cloudy
11:53 AM42.1 °F25.0 °F51 %30.01 in10.0 miSouth (170°)16.1 mph24.2 mphMostly Cloudy
12:53 PM45.0 °F24.1 °F44 %29.96 in10.0 miSouth (180°)20.7 mph31.1 mphMostly Cloudy
1:53 PM44.1 °F25.0 °F47 %29.96 in10.0 miSouth (170°)16.1 mph23.0 mphOvercast
2:53 PM43.0 °F25.0 °F49 %29.96 in10.0 miSSE (150°)12.7 mphOvercast
3:36 PM42.8 °F26.6 °F53 %29.97 in10.0 miSouth (180°)18.4 mph0.00 inRainLight Rain
3:53 PM41.0 °F28.9 °F62 %29.98 in10.0 miSouth (170°)12.7 mph0.00 inRainLight Rain
4:53 PM39.0 °F32.0 °F76 %29.99 in10.0 miSouth (190°)15.0 mph0.00 inRainLight Rain
5:53 PM37.9 °F34.0 °F86 %30.02 in8.0 miSouth (190°)13.8 mph0.04 inRainLight Rain
7:53 PM37.0 °F34.0 °F89 %30.06 in10.0 miSouth (170°)8.1 mph0.01 inRainLight Rain
8:53 PM37.0 °F35.1 °F93 %30.08 in10.0 miSSE (160°)9.2 mph0.02 inRainLight Rain
9:53 PM36.0 °F35.1 °F97 %30.08 in10.0 miSSW (210°)5.8 mph0.01 inRainLight Rain
10:53 PM36.0 °F34.0 °F93 %30.09 in10.0 miSSW (210°)8.1 mph0.00 inOvercast
11:53 PM35.1 °F35.1 °F100 %30.12 in10.0 miWest (270°)3.5 mph0.00 inRainLight Rain
Hourly data recorded from KLMT, located miles away from Rocky Point, Oregon







STORIES FROM OUR PARTNERS